YAOGAN-22

Last updated on Wed Sep 17 2025 00:02:31 GMT+0000 (Coordinated Universal Time)

1 40275U 14063A 25259.62881989 -.00000016 00000+0 81525-4 0 9998 2 40275 100.7323 41.8594 0006852 87.0980 273.0915 13.15516366523846
UTC large
Height (km)
Speed (km/s)
/
Latitude / Longitude
Inclination (degrees)
Orbital Period (minutes)
Azimuth
Elevation
Range (km)
Doppler Factor

Next 0 passes for location: London (51.5072 / 0.1276)

Sorry there are no passes over London.